www.pogodaiklimat.ru

Погода и климат >> Архив погоды >> Канада >> St. John's


ПОГОДА в St. John's

  • Прогноз погоды в St. John's
  • Монитор погоды в St. John's
  • Климат города

АРХИВ ПОГОДЫ в St. John's

Время (UTC), дата Ветер
(напр.,м/с)
 
Видим.   Явления Облачность Т
(С)
Тd
(С)
f
(%)
Тe
(С)
Тes
(С)
Комфортность P
(гПа)
Po
(гПа)
Тmin
(С)
Tmax
(С)
R
(мм)
R24
(мм)
S
(см)
18 11.10 В 8 3200 м слабый дождь {морось} 10/10 300 м
[Sc]
+6.7 +6.1 96 +1 +1 1012.2 998.9 +5.4 +7.0 3
21 11.10 В 6 4800 м 10/10 200 м
[]
+7.0 +6.6 97 +2 +2 1010.1 996.8
00 12.10 В 7 8000 м слабый дождь {морось} 10/10 200 м
[Sc]
+7.5 +7.1 97 +3 +3 1007.1 993.8 +5.4 +7.5 12
03 12.10 В 9 8000 м 10/10 100 м
[]
+8.9 +8.7 99 +4 +4 1002.1 988.9
06 12.10 8000 м слабый дождь н/о +10.6 +10.3 98 +7 +7 1000.0 986.9 +5.4 +10.6 14 11
09 12.10 С 4 8000 м 10/10 100 м
[]
+8.8 +8.8 100 +6 +6 998.4 985.3
12 12.10 С 4 3200 м слабый дождь 10/10 50 м
[Frnb]
+8.1 +8.1 100 +5 +5 998.6 985.5 +7.5 +10.6 0.8
15 12.10 С 3 4800 м 10/10 50 м
[]
+9.5 +9.1 97 +7 +7 997.6 984.5
18 12.10 С 5 6000 м дымка {дождь, туман} 10/10 100 м
[Frnb]
+9.5 +8.8 95 +6 +6 995.1 982.1 +6.7 +10.8 0.6
21 12.10 С 7 9000 м 10/10 200 м
[]
+9.1 +8.4 95 +5 +5 994.7 981.7
00 13.10 СЗ 5 24 км 6/6 1000 м
[Sc]
+7.8 +7.0 95 +4 +4 996.9 983.8 +7.8 +9.8
03 13.10 З 6 24 км 9/9 1000 м
[]
+7.9 +4.8 81 +4 +4 1000.2 987.1
06 13.10 З 3 24 км 8/8 1500 м
[Sc]
+5.4 +3.7 89 +2 +2 1002.6 989.4 +5.3 +10.8 231
09 13.10 СЗ 3 24 км 4/0
[]
+4.0 +2.6 91 +1 +1 1004.4 991.2
12 13.10 Ю 2 24 км 10/0
[Ac As Ci sp]
+4.1 +3.0 93 +2 +2 1006.0 992.7 +2.9 +10.8
15 13.10 З 3 24 км 10/10 600 м
[]
+7.2 +2.0 70 +4 +4 1007.3 994.1
18 13.10 З 4 19 км слабый дождь 10/10 600 м
[Sc]
+5.9 +2.9 81 +2 +2 1007.4 994.1 +2.9 +7.9 0.6
21 13.10 З 3 24 км 10/10 600 м
[]
+6.0 +3.1 82 +3 +3 1007.9 994.6
00 14.10 З 2 24 км {дождь} 8/3 1500 м
[Sc Ac As]
+4.9 +3.4 90 +2 +2 1009.1 995.8 +2.9 +7.9 0.2
03 14.10 З 3 24 км 10/10 1000 м
[]
+5.2 +4.0 92 +2 +2 1010.5 997.2
06 14.10 З 4 24 км 3/1 1500 м
[Sc Ac As]
+3.3 +1.5 88 -1 -1 1012.4 999.0 +2.9 +7.9 18
09 14.10 З 3 24 км 3/3 1500 м
[]
+2.0 +0.3 88 -2 -2 1013.9 1000.5
12 14.10 З 4 24 км ясно +3.1 -0.5 77 -2 -1 1016.4 1002.9 +1.1 +7.9
15 14.10 СЗ 7 24 км ясно +6.9 -2.4 52 +3 +5 1017.2 1003.8
18 14.10 З 5 24 км ясно +9.2 -1.2 48 +6 +9 1016.7 1003.3 +1.1 +9.7
21 14.10 З 4 24 км ясно +8.8 -1.1 50 +6 +6 1018.2 1004.8
00 15.10 З 2 24 км ясно +1.4 -1.3 82 -2 -2 1020.3 1006.7 +0.8 +9.9
03 15.10 С 1 24 км 3/0
[]
-1.8 -2.3 96 -3 -3 1021.5 1007.9
06 15.10 Ю 3 24 км ясно -0.1 -0.6 96 -5 -5 1021.8 1008.3 -2.8 +9.9 17
09 15.10 С 1 24 км 3/0
[]
-1.9 -2.5 96 -3 -3 1022.9 1009.3
12 15.10 С 1 24 км 5/0
[Ac As Ci fib]
+1.5 +0.7 94 -1 -0 1023.4 1009.8 -3.2 +9.9
15 15.10 Ю 5 24 км 5/5 1000 м
[]
+12.4 +2.4 50 +10 +12 1022.5 1009.0
18 15.10 ЮЗ 8 24 км 9/1 600 м
[Cu hum Ac und Ci sp]
+12.3 +7.5 72 +9 +10 1019.5 1006.1 -3.2 +13.1
21 15.10 Ю 6 16 км 10/10 600 м
[]
+10.6 +9.1 90 +7 +7 1016.5 1003.0
00 16.10 Ю 10 4800 м ливневой дождь 10/10 200 м
[Frnb]
+10.4 +9.9 97 +6 +6 1010.9 997.6 -3.2 +13.1 6
03 16.10 Ю 9 4800 м 10/10 100 м
[]
+12.1 +11.9 99 +9 +9 1004.2 991.1
06 16.10 ЮЗ 8 3200 м слабый ливневой дождь 10/10 50 м
[Frnb]
+14.5 +14.4 99 +12 +12 997.8 984.8 -3.2 +14.5 35 51
09 16.10 З 8 12 км 10/10 50 м
[]
+10.3 +7.5 83 +6 +6 998.6 985.6
12 16.10 З 7 24 км {ливн. осадки} 4/4 600 м
[Sc]
+6.4 -0.3 62 +2 +2 1002.4 989.2 +6.3 +14.5 3
15 16.10 З 8 24 км 9/9 1000 м
[]
+9.7 +0.9 54 +6 +6 1005.0 991.9
18 16.10 З 7 24 км 4/4 1000 м
[Sc]
+11.2 0.0 46 +8 +9 1006.1 993.0 +6.3 +14.6
21 16.10 З 7 24 км ясно +9.6 -1.5 46 +6 +6 1007.8 994.6
00 17.10 З 8 24 км ясно +6.3 -1.8 56 +2 +2 1010.7 997.4 +6.2 +11.2
03 17.10 З 3 24 км 1/0
[]
+3.6 -1.8 68 0 0 1012.2 998.9
06 17.10 З 3 24 км 1/0
[Ac As]
+2.2 -1.4 77 -1 -1 1013.1 999.8 +1.9 +14.6 111
09 17.10 С 1 24 км 1/0
[]
-2.4 -2.8 97 -3 -3 1012.6 999.2
12 17.10 Ю 1 24 км 10/1 300 м
[Sc Ac As]
+1.8 +0.6 92 -0 0 1011.6 998.2 -2.7 +14.6
15 17.10 Ю 8 24 км 10/10 1000 м
[]
+10.1 +4.3 67 +6 +6 1008.6 995.3
18 17.10 ЮЗ 6 19 км слабый дождь 10/10 300 м
[Sc]
+8.3 +6.2 87 +4 +4 1004.9 991.6 -2.7 +10.2 3
21 17.10 ЮЗ 6 24 км 6/6 300 м
[]
+7.6 +5.7 88 +3 +3 1003.1 989.8
00 18.10 СЗ 3 24 км в посл. час ливневой дождь 6/3 600 м
[Cu med, cong Ac As]
+6.4 +5.7 95 +3 +3 1003.2 989.9 -2.7 +10.2 8
03 18.10 З 3 24 км 9/0
[]
+4.1 +2.6 90 +1 +1 1003.9 990.7
06 18.10 З 5 24 км {ливн. осадки} 9/4 1000 м
[Sc Ac As]
+2.7 +0.6 86 -3 -3 1004.1 990.8 -2.7 +10.2 1 141
09 18.10 СЗ 6 24 км 8/0
[]
+1.3 -2.1 78 -5 -5 1005.8 992.5
12 18.10 СЗ 9 24 км 5/1 300 м
[Cu hum Ac As Ci fib]
+1.2 -3.2 72 -6 -6 1007.1 993.8 +0.9 +10.2

 

Местоположение метеостанции St. John's (Канада): широта 45.33 долгота -65.88 высота над уровнем моря 109 м.

В архиве по умолчанию представлена погода в St. John's за последнюю неделю. Архивные данные за месяц целиком и за предыдущие месяцы, начиная с января 2011 года, Вы можете получить, выбрав интересующий диапазон дат из раскрывающегося списка и нажав кнопку "Ввод!".


*Определитесь, кто Вы:
робот инопланетянин человек

Внимание! Время в таблицах - всемирное. Для получения местного времени необходимо прибавить поправку, которая в St. John's равна -4 ч.

Смотрите также архив погоды в соседних городах и на ближайших метеорологических станциях:

Погода в Point Lepreau Cs (Канада) (53 км)
Погода в Mechanic Settlement (Канада) (69 км)
Погода в Gagetown Airport (Канада) (70 км)
Погода в Fundy Park Cs (Канада) (79 км)
Погода в Fredericton (Канада) (79 км)
Погода в Greenwood (Канада) (85 км)
Погода в Frederickton Cda Cs (Канада) (86 км)
Погода в Grand Manan (Канада) (99 км)
Погода в Chipman Radar (Канада) (100 км)
Погода в St. Stephen (Канада) (108 км)

Пояснения к столбцам:

Ветер - указаны скорость ветра в м/с - средняя за 10 мин, порывы в срок и между сроками (в фигурных скобках) и направление, откуда дует ветер: С - северный, СВ - северо-восточный, В - восточный, ЮВ - юго-восточный, Ю - южный, ЮЗ - юго-западный, З - западный, СЗ - северо-западный.
Видимость - горизонтальная дальность видимости в метрах или километрах. При видимости от 1 до 10 км при отсутствии осадков обычно наблюдается дымка, при ухудшении видимости до 1 км и менее - туман. В сухую погоду видимость может ухудшаться дымом, пылью или мглою.
Явления - указаны атмосферные явления, наблюдавшиеся в срок или в последний час перед сроком; фигурными скобками обозначены явления, наблюдавшиеся между сроками (за 1-3 часа до срока); квадратными скобками обозначены град или гололедные отложения с указанием их диаметра в мм.
Облачность - указаны через наклонную черту общая и нижняя облачность в баллах и высота нижней границы облаков в метрах; квадратными скобками обозначены формы облаков: Ci - перистые, Cs - перисто-слоистые, Cc - перисто-кучевые, Ac - высококучевые, As - высокослоистые, Sc - слоисто-кучевые, Ns - слоисто-дождевые, Cu - кучевые, Cb - кучево-дождевые. Подробнее классификацию облаков см. в Атласе облаков (PDF).
T - Температура воздуха - температура, измеренная на высоте 2 м над землей.
Td - Температура точки росы - температура, при понижении до которой содержащийся в воздухе водяной пар достигнет насыщения.
f - Относительная влажность воздуха - влажноcть воздуха, измеренная на высоте 2 м над землей.
Te - Эффективная температура - температура, которую ощущает одетый по сезону человек в тени. Характеристика душности погоды. При расчете учитывается влияние влажности воздуха и скорости ветра на теплоощущения человека.
Tes - Эффективная температура на солнце - температура, которую ощущает человек, с поправкой на солнечный нагрев. Характеристика знойности погоды. Зависит от высоты солнца над горизонтом, облачности и скорости ветра. Ночью, в пасмурную погоду, а также при ветре 12 м/с и более поправка равна нулю.
P - Атмосферное давление - приведенное к уровню моря атмосферное давление.
Po - Атмосферное давление - измеренное на уровне метеостанции атмосферное давление.
Tmin - Минимальная температура - минимум температуры воздуха на высоте 2 м над землей.
Tmax - Максимальная температура - максимум температуры воздуха на высоте 2 м над землей.
R - Количество осадков - Количество выпавших осадков за период времени, мм. При наведении курсора мыши на число - период времени, за который выпало указанное количество осадков.
R24 - Количество осадков - Количество выпавших осадков за 24 часа, мм.
S - Снежный покров - Высота снежного покрова, см. При наведении курсора мыши на число - состояние снежного покрова и степень покрытия местности в баллах.